Location: Eisingen in Unterfranken
(49.7591°N, 9.8347°E)
Time: 03:46:51
(UTC+01:00)

N. Korean satellite - Pass Details

Date: 04 December 2022
Orbit: 408 x 444 km, 97.3° (Epoch: 28 January)

Event Time Altitude Azimuth Distance (km) Brightness Sun altitude
Rises 05:55:58 0° 11° (N) 2,525 10.2 -19.1°
Reaches altitude 10° 05:58:03 10° 9° (N) 1,638 9.2 -18.8°
Maximum altitude 06:01:33 73° 286° (WNW) 491 6.3 -18.2°
Drops below altitude 10° 06:05:00 10° 201° (SSW) 1,601 9.1 -17.7°
Sets 06:07:00 0° 199° (SSW) 2,461 10.1 -17.4°
